FW3620 Weather Reports


time (UTC)temp
F
wind
direction
speed
knots
gust
knots
rain 1hr
in
rain 24hr
in
rain mn
in
humidity
%
barometer
mb
20260906113719 61 238 0.0 0.0 0.00 0.00 0.00 99 1019.1
20260906113218 61 238 0.0 0.0 0.00 0.00 0.00 99 1019.2
20260906112713 61 243 0.0 0.0 0.00 0.00 0.00 99 1018.9
20260906112210 61 246 0.0 0.0 0.00 0.00 0.00 99 1018.9
20260906111709 61 227 0.0 0.0 0.00 0.00 0.00 99 1018.7
20260906111204 61 226 0.0 0.0 0.00 0.00 0.00 99 1018.4
20260906110658 61 228 0.0 0.0 0.00 0.00 0.00 99 1018.1
20260906110154 61 205 0.0 0.0 0.00 0.00 0.00 99 1018.0
20260906105648 61 205 0.0 0.0 0.00 0.00 0.00 99 1018.4
20260906105144 62 216 0.0 0.0 0.00 0.00 0.00 99 1018.0
20260906104643 62 240 0.0 0.0 0.00 0.00 0.00 99 1018.2
20260906104143 62 232 0.0 0.0 0.00 0.00 0.00 99 1018.0
20260906103641 62 224 0.0 0.0 0.00 0.00 0.00 99 1018.1
20260906103137 62 247 0.0 0.0 0.00 0.00 0.00 99 1018.2
20260906102632 62 225 0.0 0.0 0.00 0.00 0.00 99 1018.1
20260906102131 62 221 0.0 0.0 0.00 0.00 0.00 99 1018.2
20260906101631 62 223 0.0 0.0 0.00 0.00 0.00 99 1018.2
20260906101131 62 226 0.0 0.0 0.00 0.00 0.00 99 1018.3
20260906100627 63 224 0.0 0.0 0.00 0.00 0.00 99 1017.9
20260906100121 63 226 0.0 0.0 0.00 0.00 0.00 99 1018.2
20260906095616 63 233 0.0 0.0 0.00 0.00 0.00 99 1018.1
20260906095112 63 233 0.0 0.0 0.00 0.00 0.00 99 1018.1
20260906094610 63 233 0.0 0.0 0.00 0.00 0.00 99 1018.2
20260906094107 63 233 0.0 0.0 0.00 0.00 0.00 99 1018.3
20260906093603 63 234 0.0 0.0 0.00 0.00 0.00 99 1018.4
20260906093057 63 234 0.0 0.0 0.00 0.00 0.00 99 1018.4
20260906092552 63 234 0.0 0.0 0.00 0.00 0.00 99 1018.1
20260906092047 63 235 0.0 0.0 0.00 0.00 0.00 99 1018.0
20260906091542 63 235 0.0 0.0 0.00 0.00 0.00 99 1018.2
20260906091033 63 233 0.0 0.0 0.00 0.00 0.00 99 1018.1
20260906090528 63 234 0.0 0.0 0.00 0.00 0.00 99 1018.3
20260906090023 63 230 0.0 0.0 0.00 0.00 0.00 99 1018.2
20260906085522 63 229 0.0 0.0 0.00 0.00 0.00 99 1017.9
20260906085021 63 228 0.0 0.0 0.00 0.00 0.00 99 1017.8
20260906084516 63 215 0.0 0.0 0.00 0.00 0.00 99 1018.0
20260906084015 63 233 0.0 0.0 0.00 0.00 0.00 99 1018.3
20260906083511 63 247 0.0 0.0 0.00 0.00 0.00 99 1018.2
20260906083009 63 234 0.0 0.0 0.00 0.00 0.00 99 1018.3
20260906082505 63 233 0.0 0.0 0.00 0.00 0.00 99 1018.1
20260906082001 62 232 0.0 0.0 0.00 0.00 0.00 99 1018.0
20260906081456 63 232 0.0 0.0 0.00 0.00 0.00 99 1017.9
20260906080952 63 232 0.0 0.0 0.00 0.00 0.00 99 1017.9
20260906080449 63 232 0.0 0.0 0.00 0.00 0.00 99 1018.0
20260906075949 63 232 0.0 0.0 0.00 0.00 0.00 99 1018.0
20260906075444 63 232 0.0 0.0 0.00 0.00 0.00 99 1018.1
20260906074939 64 232 0.0 0.0 0.00 0.00 0.00 99 1018.0
20260906074438 63 232 0.0 0.0 0.00 0.00 0.00 99 1018.0
20260906073937 64 232 0.0 0.0 0.00 0.00 0.00 99 1017.9
20260906073432 64 232 0.0 0.0 0.00 0.00 0.00 99 1017.8
20260906072929 64 231 0.0 0.0 0.00 0.00 0.00 99 1018.0
20260906072424 64 231 0.0 0.0 0.00 0.00 0.00 99 1018.0
20260906071919 64 232 0.0 0.0 0.00 0.00 0.00 99 1018.1
20260906071415 65 227 0.0 0.0 0.00 0.00 0.00 99 1017.9
20260906070911 65 227 0.0 0.0 0.00 0.00 0.00 99 1018.0
20260906070407 65 227 0.0 0.0 0.00 0.00 0.00 99 1018.1
20260906065903 65 225 0.0 0.0 0.00 0.00 0.00 99 1018.0
20260906065356 65 221 0.0 0.0 0.00 0.00 0.00 99 1018.1
20260906064853 65 225 0.0 0.0 0.00 0.00 0.00 99 1018.2
20260906064348 65 219 0.0 0.0 0.00 0.00 0.00 99 1018.1
20260906063842 65 220 0.0 0.0 0.00 0.00 0.00 99 1018.3
20260906063338 65 220 0.0 0.0 0.00 0.00 0.00 99 1018.2
20260906062833 65 218 0.0 0.0 0.00 0.00 0.00 99 1018.6
20260906062332 65 218 0.0 0.0 0.00 0.00 0.00 99 1018.3
20260906061827 65 232 0.0 0.0 0.00 0.00 0.00 99 1018.2
20260906061323 65 236 0.0 0.0 0.00 0.00 0.00 99 1018.2
20260906060818 65 213 0.0 0.0 0.00 0.00 0.00 99 1018.4
20260906060316 65 227 0.0 0.0 0.00 0.00 0.00 99 1018.1
20260906055811 65 153 0.0 0.0 0.00 0.00 0.00 99 1018.2
20260906055307 65 246 0.0 0.0 0.00 0.00 0.00 99 1018.3
20260906054802 65 137 0.0 0.0 0.00 0.00 0.00 99 1018.1
20260906054257 65 224 0.0 0.0 0.00 0.00 0.00 99 1018.1
20260906053748 65 216 0.0 0.0 0.00 0.00 0.00 99 1018.1
20260906053244 65 222 0.0 0.0 0.00 0.00 0.00 99 1018.1
20260906052738 66 224 0.0 0.0 0.00 0.00 0.00 99 1018.3
20260906052235 66 285 0.0 0.0 0.00 0.00 0.00 99 1018.0
20260906051731 66 222 0.0 0.0 0.00 0.00 0.00 99 1018.1
20260906051225 65 218 0.0 0.0 0.00 0.00 0.00 99 1018.2
20260906050720 66 216 0.0 0.0 0.00 0.00 0.00 99 1018.3
20260906050215 65 213 0.0 0.0 0.00 0.00 0.00 99 1018.2
20260906045708 65 213 0.0 0.0 0.00 0.00 0.00 99 1018.2
20260906045203 66 213 0.0 0.0 0.00 0.00 0.00 99 1018.1
20260906044659 66 212 0.0 0.0 0.00 0.00 0.00 99 1018.1
20260906044154 66 212 0.0 0.0 0.00 0.00 0.00 99 1017.9
20260906043650 66 213 0.0 0.0 0.00 0.00 0.00 99 1018.1
20260906043145 66 213 0.0 0.0 0.00 0.00 0.00 99 1018.0
20260906042645 66 213 0.0 0.0 0.00 0.00 0.00 99 1018.1
20260906042145 66 212 0.0 0.0 0.00 0.00 0.00 98 1018.0
20260906041641 67 213 0.0 0.0 0.00 0.00 0.00 98 1018.0
20260906041135 67 212 0.0 0.0 0.00 0.00 0.00 98 1017.9
20260906040625 67 212 0.0 0.0 0.00 0.00 0.00 98 1017.6
20260906040121 67 212 0.0 0.0 0.00 0.00 0.00 97 1017.6
20260906035616 68 212 0.0 0.0 0.00 0.00 0.00 97 1017.4
20260906035112 68 212 0.0 0.0 0.00 0.00 0.00 97 1017.4
20260906034612 68 174 0.0 0.0 0.00 0.00 0.00 97 1017.3
20260906034106 68 211 0.0 0.0 0.00 0.00 0.00 96 1017.3
20260906033601 68 212 0.0 0.0 0.00 0.00 0.00 96 1017.3
20260906033056 68 207 0.0 0.0 0.00 0.00 0.00 96 1017.4
20260906032553 68 204 0.0 0.0 0.00 0.00 0.00 96 1017.3
20260906032048 69 190 0.0 0.0 0.00 0.00 0.00 95 1017.4
20260906031543 69 221 0.0 0.0 0.00 0.00 0.00 95 1017.5
20260906031039 69 206 0.0 0.0 0.00 0.00 0.00 94 1017.2
20260906030538 69 210 0.0 0.0 0.00 0.00 0.00 94 1017.1
20260906030038 69 173 0.0 0.0 0.00 0.00 0.00 94 1017.2
20260906025538 70 163 0.0 0.0 0.00 0.00 0.00 93 1017.4
20260906025036 70 217 0.0 0.0 0.00 0.00 0.00 93 1017.0
20260906024531 70 355 0.0 0.0 0.00 0.00 0.00 93 1017.0
20260906024025 70 203 0.0 0.0 0.00 0.00 0.00 93 1017.2
20260906023522 70 216 0.0 0.0 0.00 0.00 0.00 93 1016.9
20260906023016 71 229 0.0 0.0 0.00 0.00 0.00 92 1016.6
20260906022512 71 220 0.0 0.0 0.00 0.00 0.00 92 1016.8
20260906022007 71 156 0.0 0.0 0.00 0.00 0.00 91 1016.7
20260906021503 71 237 0.0 0.0 0.00 0.00 0.00 91 1016.6
20260906020957 71 223 0.0 0.0 0.00 0.00 0.00 91 1016.4
20260906020450 71 214 0.0 0.0 0.00 0.00 0.00 91 1016.3
20260906015949 72 192 0.0 0.0 0.00 0.00 0.00 90 1016.2
20260906015449 72 162 0.0 0.0 0.00 0.00 0.00 90 1016.1
20260906014944 72 179 0.0 0.0 0.00 0.00 0.00 90 1016.0
20260906014444 72 331 0.0 0.0 0.00 0.00 0.00 90 1016.1
20260906013940 72 170 0.0 0.0 0.00 0.00 0.00 91 1015.9
20260906013435 72 200 0.0 0.0 0.00 0.00 0.00 92 1015.9
20260906012931 72 160 0.0 0.0 0.00 0.00 0.00 92 1016.0
20260906012425 72 225 0.0 0.0 0.00 0.00 0.00 92 1015.8
20260906011925 73 216 0.0 0.0 0.00 0.00 0.00 91 1015.8
20260906011420 73 214 0.0 0.0 0.00 0.00 0.00 91 1015.9
20260906010915 73 210 0.0 0.0 0.00 0.00 0.00 90 1015.9
20260906010411 73 190 0.0 0.0 0.00 0.00 0.00 90 1016.0
20260906005906 73 303 0.0 0.0 0.00 0.00 0.00 90 1016.1
20260906005405 73 35 0.0 0.0 0.00 0.00 0.00 90 1015.9
20260906004858 73 49 0.0 0.0 0.00 0.00 0.00 89 1016.0
20260906004353 74 175 0.0 0.0 0.00 0.00 0.00 89 1016.1
20260906003849 74 46 0.0 0.9 0.00 0.00 0.00 88 1015.8
20260906003344 74 343 2.6 4.3 0.00 0.00 0.00 87 1016.1
20260906002839 74 186 0.9 1.7 0.00 0.00 0.00 87 1016.0
20260906002338 75 131 0.0 0.0 0.00 0.00 0.00 86 1016.0
20260906001834 75 162 0.0 0.0 0.00 0.00 0.00 86 1016.2
20260906001330 75 155 0.0 0.0 0.00 0.00 0.00 85 1016.1
20260906000825 76 246 0.0 0.0 0.00 0.00 0.00 85 1016.0
20260906000320 76 292 0.0 0.0 0.00 0.00 0.00 86 1016.0
20260905235819 76 56 0.0 0.0 0.00 0.00 0.00 85 1016.0
20260905235314 76 223 0.0 0.0 0.00 0.00 0.00 84 1016.1
20260905234810 76 67 0.0 0.0 0.00 0.00 0.00 84 1016.1
20260905234305 76 47 0.0 0.0 0.00 0.00 0.00 84 1016.0
20260905233759 76 275 0.0 0.0 0.00 0.00 0.00 83 1016.0
20260905233300 77 164 0.0 0.0 0.00 0.00 0.00 83 1016.3
20260905232759 77 346 0.0 0.0 0.00 0.00 0.00 83 1016.1
20260905232255 77 221 0.0 0.0 0.00 0.00 0.00 82 1016.1
20260905231750 77 260 0.9 2.6 0.00 0.00 0.00 81 1015.9
20260905231245 77 146 0.0 0.0 0.00 0.00 0.00 81 1016.0
20260905230742 78 295 0.0 0.9 0.00 0.00 0.00 79 1016.1
20260905230240 78 21 1.7 4.3 0.00 0.00 0.00 78 1016.0
20260905225739 78 21 0.9 1.7 0.00 0.00 0.00 78 1016.0
20260905225235 79 220 0.9 1.7 0.00 0.00 0.00 77 1016.0
20260905224734 79 319 0.0 0.0 0.00 0.00 0.00 77 1016.0
20260905224230 79 118 0.0 0.0 0.00 0.00 0.00 77 1016.2
20260905223726 79 187 0.0 0.0 0.00 0.00 0.00 75 1016.0
20260905223223 80 303 1.7 2.6 0.00 0.00 0.00 75 1016.0
20260905222718 80 2 0.0 0.0 0.00 0.00 0.00 74 1015.8
20260905222217 80 71 1.7 2.6 0.00 0.00 0.00 75 1016.0
20260905221713 80 349 0.0 0.0 0.00 0.00 0.00 74 1015.7
20260905221209 80 208 0.0 0.0 0.00 0.00 0.00 74 1015.4
20260905220705 80 36 0.0 0.0 0.00 0.00 0.00 75 1015.7
20260905220201 80 231 0.0 0.0 0.00 0.00 0.00 77 1015.4
20260905215700 78 248 0.0 0.0 0.00 0.00 0.00 80 1015.7
20260905215156 78 302 1.7 1.7 0.00 0.00 0.00 80 1015.7
20260905214652 78 319 0.9 2.6 0.00 0.00 0.00 78 1015.8
20260905214147 78 36 0.0 0.9 0.00 0.00 0.00 77 1015.8
20260905213642 79 351 5.2 7.0 0.00 0.00 0.00 77 1015.7
20260905213137 81 42 0.0 0.0 0.00 0.00 0.00 77 1015.8
20260905212633 80 288 0.0 0.0 0.00 0.00 0.00 76 1016.0
20260905212132 78 253 0.0 0.0 0.00 0.00 0.00 79 1015.6
20260905211627 78 80 0.0 0.0 0.00 0.00 0.00 80 1015.8
20260905211122 78 34 0.0 0.9 0.00 0.00 0.00 79 1015.7
20260905210619 79 346 1.7 2.6 0.00 0.00 0.00 79 1015.8
20260905210113 78 339 0.9 1.7 0.00 0.00 0.00 78 1015.8
20260905205613 78 2 0.0 0.0 0.00 0.00 0.00 80 1015.9
20260905205112 78 236 0.0 0.0 0.00 0.00 0.00 80 1015.8
20260905204612 79 223 0.0 0.0 0.00 0.00 0.00 79 1016.0
20260905204107 79 243 0.0 0.0 0.00 0.00 0.00 78 1015.9
20260905203602 79 10 0.9 2.6 0.00 0.00 0.00 78 1015.9
20260905203057 79 354 4.3 6.1 0.00 0.00 0.00 79 1015.7
20260905202553 81 281 0.0 0.9 0.00 0.00 0.00 78 1015.7
20260905202048 80 206 0.0 0.0 0.00 0.00 0.00 76 1015.7
20260905201543 78 354 0.0 0.0 0.00 0.00 0.00 80 1015.5
20260905201043 78 357 0.0 0.9 0.00 0.00 0.00 81 1015.7
20260905200538 78 341 3.5 4.3 0.00 0.00 0.00 79 1015.9
20260905200038 78 325 0.0 0.0 0.00 0.00 0.00 80 1015.8
20260905195537 78 356 1.7 2.6 0.00 0.00 0.00 80 1015.9
20260905195028 78 323 1.7 2.6 0.00 0.00 0.00 79 1015.8
20260905194527 78 309 1.7 4.3 0.00 0.00 0.00 81 1016.0
20260905194027 78 48 0.9 2.6 0.00 0.00 0.00 79 1016.0
20260905193522 78 51 3.5 4.3 0.00 0.00 0.00 78 1016.0
20260905193017 78 354 0.9 0.9 0.00 0.00 0.00 79 1016.1
20260905192512 78 2 3.5 6.1 0.00 0.00 0.00 79 1016.0
20260905192009 79 11 3.5 7.0 0.00 0.00 0.00 79 1016.1
20260905191507 78 307 0.0 0.0 0.00 0.00 0.00 79 1016.0
20260905191006 78 346 1.7 4.3 0.00 0.00 0.00 80 1015.9
20260905190504 77 340 0.0 0.0 0.00 0.00 0.00 82 1016.2
20260905190004 78 19 2.6 6.1 0.00 0.00 0.00 83 1016.2
20260905185458 78 29 0.0 0.9 0.00 0.00 0.00 81 1016.1
20260905184957 78 354 3.5 5.2 0.00 0.00 0.00 81 1016.2
20260905184452 78 33 0.0 0.0 0.00 0.00 0.00 81 1016.4
20260905183951 78 79 0.0 1.7 0.00 0.00 0.00 82 1016.3
20260905183451 77 350 1.7 2.6 0.00 0.00 0.00 84 1016.5
20260905182945 77 274 0.0 0.0 0.00 0.00 0.00 84 1016.3
20260905182444 77 169 1.7 2.6 0.00 0.00 0.00 83 1016.2
20260905181940 77 32 0.0 0.0 0.00 0.00 0.00 83 1016.1
20260905181435 77 68 0.0 0.0 0.00 0.00 0.00 84 1016.1
20260905180934 78 70 4.3 7.0 0.00 0.00 0.00 83 1016.2
20260905180429 78 47 0.9 1.7 0.00 0.00 0.00 82 1016.2
20260905175925 78 356 0.9 1.7 0.00 0.00 0.00 82 1016.3
20260905175423 77 311 0.0 0.0 0.00 0.00 0.00 84 1016.3
20260905174919 77 350 0.0 0.0 0.00 0.00 0.00 84 1016.4
20260905174415 77 356 0.0 0.0 0.00 0.00 0.00 85 1016.4
20260905173910 77 174 0.0 0.0 0.00 0.00 0.00 84 1016.4
20260905173406 77 25 0.0 0.0 0.00 0.00 0.00 84 1016.4
20260905172901 77 324 0.0 0.0 0.00 0.00 0.00 83 1016.4
20260905172359 75 221 0.0 0.0 0.00 0.00 0.00 87 1016.4
20260905171854 75 325 0.0 0.0 0.00 0.00 0.00 88 1016.5
20260905171351 75 38 0.0 0.9 0.00 0.00 0.00 88 1016.5
20260905170848 75 349 0.0 0.0 0.00 0.00 0.00 88 1016.6
20260905170344 75 262 0.0 0.0 0.00 0.00 0.00 89 1016.4
20260905165842 74 269 0.0 0.0 0.00 0.00 0.00 90 1016.6
20260905165332 74 294 0.0 0.0 0.00 0.00 0.00 90 1016.6
20260905164833 74 13 0.0 0.0 0.00 0.00 0.00 90 1016.7
20260905164327 74 85 0.0 0.0 0.00 0.00 0.00 90 1016.6
20260905163823 74 309 0.0 0.0 0.00 0.00 0.00 89 1016.5
20260905163319 74 338 0.0 0.0 0.00 0.00 0.00 90 1016.5
20260905162815 74 343 0.0 0.0 0.00 0.00 0.00 90 1016.8
20260905162314 74 19 0.0 0.0 0.00 0.00 0.00 90 1016.7
20260905161809 73 296 0.0 0.0 0.00 0.00 0.00 91 1016.7
20260905161308 73 257 0.0 0.0 0.00 0.00 0.00 92 1016.7
20260905160801 73 22 2.6 5.2 0.00 0.00 0.00 91 1016.4
20260905160255 73 13 1.7 1.7 0.00 0.00 0.00 91 1016.6
20260905155750 73 53 0.0 0.0 0.00 0.00 0.00 92 1016.6
20260905155249 73 39 2.6 4.3 0.00 0.00 0.00 92 1016.6
20260905154749 73 117 1.7 4.3 0.00 0.00 0.00 92 1016.5
20260905154245 73 6 0.9 1.7 0.00 0.00 0.00 93 1016.7
20260905153740 73 355 0.0 0.0 0.00 0.00 0.00 93 1016.5
20260905153236 73 338 2.6 2.6 0.00 0.00 0.00 93 1016.4
20260905152731 73 201 0.0 0.0 0.00 0.00 0.00 94 1016.3
20260905152230 72 210 0.0 0.0 0.00 0.00 0.00 94 1016.6
20260905151724 72 291 0.0 0.9 0.00 0.00 0.00 94 1016.7
20260905151220 73 311 1.7 1.7 0.00 0.00 0.00 94 1016.4
20260905150716 72 280 0.0 0.0 0.00 0.00 0.00 94 1016.2
20260905150215 72 109 0.9 1.7 0.00 0.00 0.00 94 1016.3
20260905145712 72 334 0.0 0.0 0.00 0.00 0.00 94 1016.2
20260905145207 72 278 0.9 2.6 0.00 0.00 0.00 94 1016.1
20260905144700 72 351 2.6 5.2 0.00 0.00 0.00 95 1015.9
20260905144200 73 327 0.0 0.0 0.00 0.00 0.00 95 1015.8
20260905143659 73 269 0.0 0.0 0.00 0.00 0.00 94 1015.8
20260905143154 73 113 0.0 0.0 0.00 0.00 0.00 94 1015.9
20260905142653 73 151 0.0 0.0 0.00 0.00 0.00 94 1015.8
20260905142148 73 203 0.0 0.0 0.00 0.00 0.00 94 1015.5
20260905141643 73 161 0.0 0.0 0.00 0.00 0.00 94 1015.7
20260905141139 73 26 0.0 0.0 0.00 0.00 0.00 94 1015.6
20260905140633 73 265 0.0 0.0 0.00 0.00 0.00 94 1015.6
20260905140132 73 168 0.0 0.0 0.00 0.00 0.00 94 1015.6
20260905135627 73 207 0.0 0.0 0.00 0.00 0.00 95 1015.5
20260905135123 72 213 0.0 0.0 0.00 0.00 0.00 95 1015.4
20260905134618 72 294 0.0 0.9 0.00 0.00 0.00 95 1015.2
20260905134116 72 285 0.0 0.0 0.00 0.00 0.00 96 1015.2
20260905133612 72 38 0.0 0.0 0.00 0.00 0.00 96 1015.2
20260905133107 72 359 0.9 1.7 0.00 0.00 0.00 97 1015.3
20260905132607 71 21 0.0 0.0 0.00 0.00 0.00 98 1015.2
20260905132101 71 68 0.0 0.0 0.00 0.00 0.00 98 1015.0
20260905131557 71 117 0.0 0.0 0.00 0.00 0.00 98 1015.2
20260905131052 71 28 1.7 4.3 0.00 0.00 0.00 99 1015.3
20260905130551 71 166 0.0 0.0 0.00 0.00 0.00 99 1015.1
20260905130046 71 45 0.0 0.0 0.00 0.00 0.00 99 1015.0
20260905125545 71 251 0.0 0.9 0.00 0.00 0.00 99 1015.1
20260905125041 71 15 0.0 0.0 0.00 0.00 0.00 99 1015.2
20260905124537 71 259 0.0 0.0 0.00 0.00 0.00 99 1015.0
20260905124033 71 271 0.0 0.0 0.00 0.00 0.00 99 1015.2
20260905123528 70 203 0.0 0.0 0.00 0.00 0.00 99 1015.1
20260905123026 71 248 0.0 0.0 0.00 0.00 0.00 99 1015.1
20260905122524 70 315 0.0 0.0 0.00 0.00 0.00 99 1015.3
20260905122014 70 291 0.0 0.0 0.00 0.00 0.00 99 1015.1
20260905121514 70 55 0.0 0.0 0.00 0.00 0.00 99 1015.0
20260905121009 70 354 0.0 0.0 0.00 0.00 0.00 99 1014.7
20260905120509 70 283 0.0 0.0 0.00 0.00 0.00 99 1014.5
20260905120004 70 240 0.0 0.0 0.00 0.00 0.00 99 1014.4
20260905115503 70 346 0.0 0.0 0.00 0.00 0.00 99 1014.3
20260905114958 71 52 1.7 2.6 0.00 0.00 0.00 99 1014.5
20260905114458 71 289 0.0 0.0 0.00 0.00 0.00 99 1014.1